Time,TemperatureF,DewpointF,PressureIn,WindDirection,WindDirectionDegrees,WindSpeedMPH,WindSpeedGustMPH,Humidity,HourlyPrecipIn,Conditions,Clouds,dailyrainin,SoftwareType,DateUTC
2013-06-28 00:08:00,75.6,72.0,29.86,WNW,301,0.0,0.0,87,0.00,,,0.00,weatherlink.com 1.10,2013-06-28 05:08:00,
2013-06-28 00:23:00,75.3,71.0,29.86,WNW,300,0.0,0.0,87,0.00,,,0.00,weatherlink.com 1.10,2013-06-28 05:23:00,
2013-06-28 00:38:00,75.0,72.0,29.87,WNW,301,0.0,0.0,89,0.00,,,0.00,weatherlink.com 1.10,2013-06-28 05:38:00,
2013-06-28 00:53:00,75.3,72.0,29.88,WNW,301,0.0,0.0,89,0.00,,,0.00,weatherlink.com 1.10,2013-06-28 05:53:00,
2013-06-28 02:48:00,75.5,71.0,29.86,WNW,301,0.0,0.0,86,0.00,,,0.00,weatherlink.com 1.10,2013-06-28 07:48:00,
2013-06-28 02:54:00,75.4,71.0,29.85,WNW,300,0.0,0.0,86,0.00,,,0.00,weatherlink.com 1.10,2013-06-28 07:54:00,
2013-06-28 03:09:00,75.4,71.0,29.85,WNW,300,0.0,0.0,87,0.00,,,0.00,weatherlink.com 1.10,2013-06-28 08:09:00,
2013-06-28 03:24:00,75.3,71.0,29.85,WNW,300,0.0,0.0,87,0.00,,,0.00,weatherlink.com 1.10,2013-06-28 08:24:00,
2013-06-28 03:39:00,75.3,71.0,29.84,WNW,301,0.0,0.0,87,0.00,,,0.00,weatherlink.com 1.10,2013-06-28 08:39:00,
2013-06-28 03:54:00,75.2,71.0,29.82,WNW,301,0.0,0.0,87,0.00,,,0.00,weatherlink.com 1.10,2013-06-28 08:54:00,
2013-06-28 04:09:00,74.9,71.0,29.82,WNW,300,0.0,0.0,88,0.00,,,0.00,weatherlink.com 1.10,2013-06-28 09:09:00,
2013-06-28 04:24:00,74.8,71.0,29.83,WNW,300,0.0,0.0,89,0.00,,,0.00,weatherlink.com 1.10,2013-06-28 09:24:00,
2013-06-28 04:39:00,74.7,71.0,29.83,WNW,300,0.0,0.0,89,0.00,,,0.00,weatherlink.com 1.10,2013-06-28 09:39:00,
2013-06-28 04:54:00,74.8,71.0,29.83,WNW,301,0.0,0.0,89,0.00,,,0.00,weatherlink.com 1.10,2013-06-28 09:54:00,
2013-06-28 05:09:00,75.0,72.0,29.81,WNW,300,0.0,0.0,89,0.00,,,0.00,weatherlink.com 1.10,2013-06-28 10:09:00,
2013-06-28 05:24:00,75.1,72.0,29.81,WNW,301,0.0,0.0,90,0.00,,,0.00,weatherlink.com 1.10,2013-06-28 10:24:00,
2013-06-28 05:39:00,75.3,72.0,29.83,WNW,301,0.0,0.0,90,0.00,,,0.00,weatherlink.com 1.10,2013-06-28 10:39:00,
2013-06-28 05:54:00,75.7,73.0,29.83,WNW,301,0.0,1.0,90,0.00,,,0.00,weatherlink.com 1.10,2013-06-28 10:54:00,
2013-06-28 06:09:00,75.9,73.0,29.82,WNW,300,0.0,0.0,90,0.00,,,0.00,weatherlink.com 1.10,2013-06-28 11:09:00,
2013-06-28 06:24:00,76.3,73.0,29.84,WNW,301,0.0,1.0,89,0.00,,,0.00,weatherlink.com 1.10,2013-06-28 11:24:00,
2013-06-28 06:39:00,76.8,71.0,29.89,East,79,3.0,7.0,83,0.00,,,0.00,weatherlink.com 1.10,2013-06-28 11:39:00,
2013-06-28 06:54:00,75.3,70.0,29.89,NE,50,5.0,8.0,83,0.00,,,0.00,weatherlink.com 1.10,2013-06-28 11:54:00,
2013-06-28 07:09:00,73.0,70.0,29.90,NW,326,3.0,10.0,91,0.00,,,0.00,weatherlink.com 1.10,2013-06-28 12:09:00,
2013-06-28 07:24:00,72.3,70.0,29.92,ENE,68,1.0,4.0,93,0.07,,,0.07,weatherlink.com 1.10,2013-06-28 12:24:00,
2013-06-28 07:40:00,72.2,70.0,29.91,East,85,0.0,5.0,94,0.18,,,0.18,weatherlink.com 1.10,2013-06-28 12:40:00,
2013-06-28 07:55:00,72.3,71.0,29.87,East,80,0.0,1.0,95,0.32,,,0.32,weatherlink.com 1.10,2013-06-28 12:55:00,
2013-06-28 08:10:00,72.2,71.0,29.88,SSW,195,0.0,2.0,95,0.33,,,0.34,weatherlink.com 1.10,2013-06-28 13:10:00,
2013-06-28 08:25:00,72.1,71.0,29.85,ENE,77,0.0,2.0,95,0.26,,,0.34,weatherlink.com 1.10,2013-06-28 13:25:00,
2013-06-28 08:40:00,72.1,71.0,29.82,East,89,0.0,2.0,95,0.15,,,0.34,weatherlink.com 1.10,2013-06-28 13:40:00,
2013-06-28 08:55:00,72.0,71.0,29.83,SW,217,0.0,0.0,95,0.02,,,0.34,weatherlink.com 1.10,2013-06-28 13:55:00,
2013-06-28 09:10:00,71.9,71.0,29.84,SW,217,0.0,0.0,95,0.00,,,0.34,weatherlink.com 1.10,2013-06-28 14:10:00,
2013-06-28 09:25:00,71.8,70.0,29.84,SW,217,0.0,0.0,95,0.00,,,0.34,weatherlink.com 1.10,2013-06-28 14:25:00,
2013-06-28 09:40:00,72.0,71.0,29.84,WNW,291,0.0,1.0,95,0.00,,,0.34,weatherlink.com 1.10,2013-06-28 14:40:00,
2013-06-28 09:55:00,72.2,71.0,29.84,WNW,293,0.0,1.0,95,0.00,,,0.34,weatherlink.com 1.10,2013-06-28 14:55:00,
2013-06-28 10:10:00,72.4,71.0,29.85,WNW,288,0.0,1.0,95,0.00,,,0.34,weatherlink.com 1.10,2013-06-28 15:10:00,
2013-06-28 10:25:00,72.8,71.0,29.86,West,281,0.0,3.0,95,0.00,,,0.34,weatherlink.com 1.10,2013-06-28 15:25:00,
2013-06-28 10:40:00,73.2,72.0,29.86,NNE,20,0.0,3.0,95,0.01,,,0.35,weatherlink.com 1.10,2013-06-28 15:40:00,
2013-06-28 10:55:00,74.1,73.0,29.86,NW,309,1.0,1.0,95,0.02,,,0.36,weatherlink.com 1.10,2013-06-28 15:55:00,
2013-06-28 11:10:00,75.2,74.0,29.86,West,271,0.0,3.0,95,0.02,,,0.36,weatherlink.com 1.10,2013-06-28 16:10:00,
2013-06-28 11:25:00,76.1,74.0,29.85,West,281,0.0,0.0,93,0.02,,,0.36,weatherlink.com 1.10,2013-06-28 16:25:00,
2013-06-28 11:40:00,77.0,75.0,29.85,West,281,0.0,0.0,92,0.01,,,0.36,weatherlink.com 1.10,2013-06-28 16:40:00,
2013-06-28 11:55:00,77.7,74.0,29.84,WNW,295,1.0,3.0,88,0.00,,,0.36,weatherlink.com 1.10,2013-06-28 16:55:00,
2013-06-28 12:10:00,79.0,75.0,29.84,WNW,293,0.0,4.0,87,0.00,,,0.36,weatherlink.com 1.10,2013-06-28 17:10:00,
2013-06-28 12:25:00,80.3,75.0,29.84,WSW,245,1.0,4.0,84,0.00,,,0.36,weatherlink.com 1.10,2013-06-28 17:25:00,
2013-06-28 12:40:00,80.8,75.0,29.84,West,281,1.0,3.0,83,0.00,,,0.36,weatherlink.com 1.10,2013-06-28 17:40:00,
2013-06-28 12:55:00,81.4,75.0,29.83,WNW,287,0.0,5.0,80,0.00,,,0.36,weatherlink.com 1.10,2013-06-28 17:55:00,
2013-06-28 13:10:00,82.2,75.0,29.82,WNW,299,4.0,5.0,78,0.00,,,0.36,weatherlink.com 1.10,2013-06-28 18:10:00,
2013-06-28 13:25:00,83.8,76.0,29.81,SW,235,1.0,4.0,77,0.00,,,0.36,weatherlink.com 1.10,2013-06-28 18:25:00,
2013-06-28 13:40:00,84.6,75.0,29.80,WNW,290,5.0,7.0,72,0.00,,,0.36,weatherlink.com 1.10,2013-06-28 18:40:00,
2013-06-28 13:55:00,86.1,76.0,29.80,West,267,4.0,8.0,72,0.00,,,0.36,weatherlink.com 1.10,2013-06-28 18:55:00,
2013-06-28 14:10:00,85.4,75.0,29.79,WNW,296,0.0,6.0,72,0.00,,,0.36,weatherlink.com 1.10,2013-06-28 19:10:00,
2013-06-28 14:25:00,85.2,75.0,29.79,NW,311,2.0,7.0,72,0.00,,,0.36,weatherlink.com 1.10,2013-06-28 19:25:00,
2013-06-28 14:40:00,85.4,75.0,29.79,NNW,338,1.0,6.0,71,0.00,,,0.36,weatherlink.com 1.10,2013-06-28 19:40:00,
2013-06-28 14:55:00,86.7,75.0,29.78,WNW,288,4.0,6.0,68,0.00,,,0.36,weatherlink.com 1.10,2013-06-28 19:55:00,
2013-06-28 15:10:00,87.6,77.0,29.78,NNW,342,0.0,6.0,70,0.00,,,0.36,weatherlink.com 1.10,2013-06-28 20:10:00,
2013-06-28 15:25:00,89.1,74.0,29.77,SW,231,3.0,5.0,61,0.00,,,0.36,weatherlink.com 1.10,2013-06-28 20:25:00,
2013-06-28 15:40:00,89.4,74.0,29.77,West,276,1.0,6.0,60,0.00,,,0.36,weatherlink.com 1.10,2013-06-28 20:40:00,
2013-06-28 15:55:00,90.2,73.0,29.77,WNW,294,0.0,2.0,57,0.00,,,0.36,weatherlink.com 1.10,2013-06-28 20:55:00,
2013-06-28 16:11:00,91.0,74.0,29.76,ESE,112,0.0,4.0,58,0.00,,,0.36,weatherlink.com 1.10,2013-06-28 21:11:00,
2013-06-28 16:26:00,91.3,74.0,29.76,NNE,32,0.0,7.0,57,0.00,,,0.36,weatherlink.com 1.10,2013-06-28 21:26:00,
2013-06-28 16:41:00,91.1,73.0,29.76,NW,312,1.0,6.0,56,0.00,,,0.36,weatherlink.com 1.10,2013-06-28 21:41:00,
2013-06-28 16:56:00,90.9,73.0,29.75,North,357,1.0,8.0,56,0.00,,,0.36,weatherlink.com 1.10,2013-06-28 21:56:00,
2013-06-28 17:11:00,91.6,73.0,29.75,SSE,157,0.0,6.0,54,0.00,,,0.36,weatherlink.com 1.10,2013-06-28 22:11:00,
2013-06-28 17:26:00,92.5,72.0,29.75,SE,126,0.0,2.0,52,0.00,,,0.36,weatherlink.com 1.10,2013-06-28 22:26:00,
2013-06-28 17:41:00,92.5,71.0,29.75,WNW,285,1.0,3.0,49,0.00,,,0.36,weatherlink.com 1.10,2013-06-28 22:41:00,
2013-06-28 17:56:00,93.1,72.0,29.74,NNW,331,0.0,3.0,51,0.00,,,0.36,weatherlink.com 1.10,2013-06-28 22:56:00,
2013-06-28 18:11:00,93.1,72.0,29.74,West,269,2.0,4.0,51,0.00,,,0.36,weatherlink.com 1.10,2013-06-28 23:11:00,
2013-06-28 18:26:00,92.3,73.0,29.74,WSW,252,0.0,4.0,53,0.00,,,0.36,weatherlink.com 1.10,2013-06-28 23:26:00,
2013-06-28 18:41:00,92.9,72.0,29.73,WNW,286,0.0,3.0,51,0.00,,,0.36,weatherlink.com 1.10,2013-06-28 23:41:00,
2013-06-28 18:56:00,92.4,71.0,29.73,WSW,257,0.0,2.0,50,0.00,,,0.36,weatherlink.com 1.10,2013-06-28 23:56:00,
2013-06-28 19:11:00,92.4,70.0,29.73,WSW,248,0.0,4.0,48,0.00,,,0.36,weatherlink.com 1.10,2013-06-29 00:11:00,
2013-06-28 19:26:00,91.1,69.0,29.73,WNW,282,2.0,2.0,48,0.00,,,0.36,weatherlink.com 1.10,2013-06-29 00:26:00,
2013-06-28 19:41:00,90.8,70.0,29.73,WNW,282,0.0,2.0,50,0.00,,,0.36,weatherlink.com 1.10,2013-06-29 00:41:00,
2013-06-28 19:56:00,90.0,69.0,29.73,West,277,1.0,2.0,51,0.00,,,0.36,weatherlink.com 1.10,2013-06-29 00:56:00,
2013-06-28 20:11:00,87.3,70.0,29.72,West,280,0.0,0.0,56,0.00,,,0.36,weatherlink.com 1.10,2013-06-29 01:11:00,
2013-06-28 20:26:00,85.2,69.0,29.72,West,280,0.0,0.0,59,0.00,,,0.36,weatherlink.com 1.10,2013-06-29 01:26:00,
2013-06-28 20:41:00,83.8,69.0,29.73,West,280,0.0,0.0,62,0.00,,,0.36,weatherlink.com 1.10,2013-06-29 01:41:00,
2013-06-28 20:56:00,82.7,70.0,29.73,West,280,0.0,0.0,65,0.00,,,0.36,weatherlink.com 1.10,2013-06-29 01:56:00,
2013-06-28 21:11:00,81.5,70.0,29.74,West,280,0.0,0.0,69,0.00,,,0.36,weatherlink.com 1.10,2013-06-29 02:11:00,
2013-06-28 21:26:00,80.4,70.0,29.75,West,280,0.0,0.0,70,0.00,,,0.36,weatherlink.com 1.10,2013-06-29 02:26:00,
2013-06-28 21:41:00,79.8,70.0,29.75,West,280,0.0,0.0,72,0.00,,,0.36,weatherlink.com 1.10,2013-06-29 02:41:00,
2013-06-28 21:56:00,79.1,70.0,29.75,West,280,0.0,0.0,73,0.00,,,0.36,weatherlink.com 1.10,2013-06-29 02:56:00,
2013-06-28 22:11:00,78.5,70.0,29.76,West,280,0.0,0.0,75,0.00,,,0.36,weatherlink.com 1.10,2013-06-29 03:11:00,
2013-06-28 22:26:00,78.1,70.0,29.77,West,280,0.0,0.0,76,0.00,,,0.36,weatherlink.com 1.10,2013-06-29 03:26:00,
2013-06-28 22:41:00,77.8,70.0,29.77,West,280,0.0,0.0,77,0.00,,,0.36,weatherlink.com 1.10,2013-06-29 03:41:00,
2013-06-28 22:56:00,78.9,70.0,29.78,West,280,0.0,1.0,73,0.00,,,0.36,weatherlink.com 1.10,2013-06-29 03:56:00,
2013-06-28 23:11:00,80.4,69.0,29.77,WNW,283,0.0,2.0,69,0.00,,,0.36,weatherlink.com 1.10,2013-06-29 04:11:00,
2013-06-28 23:26:00,80.9,69.0,29.78,West,264,0.0,1.0,67,0.00,,,0.36,weatherlink.com 1.10,2013-06-29 04:26:00,
2013-06-28 23:41:00,80.9,69.0,29.78,West,280,0.0,2.0,67,0.00,,,0.36,weatherlink.com 1.10,2013-06-29 04:41:00,
2013-06-28 23:56:00,80.7,69.0,29.78,West,262,0.0,1.0,67,0.00,,,0.36,weatherlink.com 1.10,2013-06-29 04:56:00,